| time (UTC) | temp C | wind direction | speed KPH | gust KPH | rain 1hr cm | rain 24hr cm | rain mn cm | humidity % | barometer mb |
| 20260504130555 | 12 | 233 | 6.4 | 12.9 | 0.00 | 0.00 | 0.00 | 62 | 1014.8 |
| 20260504110555 | 6 | 347 | 0.0 | 0.0 | 0.00 | 0.00 | 0.00 | 86 | 1015.5 |
| 20260504100555 | 5 | 347 | 0.0 | 3.2 | 0.00 | 0.00 | 0.00 | 84 | 1015.2 |
| 20260504081555 | 6 | 173 | 0.0 | 3.2 | 0.00 | 0.00 | 0.00 | 81 | 1015.5 |
| 20260504081055 | 6 | 317 | 1.6 | 1.6 | 0.00 | 0.00 | 0.00 | 81 | 1015.5 |
| 20260504080555 | 6 | 317 | 0.0 | 1.6 | 0.00 | 0.00 | 0.00 | 81 | 1015.4 |
| 20260504050555 | 6 | 22 | 0.0 | 1.6 | 0.00 | 0.00 | 0.00 | 79 | 1015.8 |
| 20260504045555 | 6 | 22 | 0.0 | 0.0 | 0.00 | 0.00 | 0.00 | 77 | 1015.7 |
| 20260504045055 | 6 | 22 | 0.0 | 0.0 | 0.00 | 0.00 | 0.00 | 77 | 1015.7 |
| 20260504044555 | 6 | 22 | 0.0 | 1.6 | 0.00 | 0.00 | 0.00 | 77 | 1015.7 |
| 20260504044055 | 6 | 22 | 0.0 | 3.2 | 0.00 | 0.00 | 0.00 | 77 | 1015.8 |
| 20260504043555 | 6 | 22 | 1.6 | 0.0 | 0.00 | 0.00 | 0.00 | 77 | 1015.7 |
| 20260504043057 | 6 | 22 | 1.6 | 3.2 | 0.00 | 0.00 | 0.00 | 78 | 1015.7 |
| 20260504042555 | 6 | 22 | 1.6 | 1.6 | 0.00 | 0.00 | 0.00 | 77 | 1015.7 |
| 20260504042055 | 6 | 22 | 1.6 | 3.2 | 0.00 | 0.00 | 0.00 | 76 | 1015.6 |
| 20260504041555 | 6 | 22 | 0.0 | 1.6 | 0.00 | 0.00 | 0.00 | 77 | 1015.8 |
| 20260504041055 | 6 | 22 | 1.6 | 3.2 | 0.00 | 0.00 | 0.00 | 78 | 1015.7 |
| 20260504040555 | 6 | 22 | 1.6 | 1.6 | 0.00 | 0.00 | 0.00 | 78 | 1015.7 |
| 20260504040055 | 6 | 22 | 0.0 | 1.6 | 0.00 | 0.00 | 0.00 | 78 | 1015.6 |
| 20260504035555 | 6 | 22 | 0.0 | 1.6 | 0.00 | 0.00 | 0.00 | 76 | 1015.6 |
| 20260504035057 | 5 | 22 | 1.6 | 1.6 | 0.00 | 0.00 | 0.00 | 76 | 1015.6 |
| 20260504034555 | 6 | 22 | 1.6 | 1.6 | 0.00 | 0.00 | 0.00 | 76 | 1015.7 |
| 20260504034055 | 5 | 22 | 1.6 | 1.6 | 0.00 | 0.00 | 0.00 | 75 | 1015.6 |
| 20260504033555 | 5 | 22 | 1.6 | 3.2 | 0.00 | 0.00 | 0.00 | 74 | 1015.6 |
| 20260504033057 | 5 | 22 | 1.6 | 3.2 | 0.00 | 0.00 | 0.00 | 73 | 1015.7 |
| 20260504032555 | 5 | 22 | 1.6 | 3.2 | 0.00 | 0.00 | 0.00 | 71 | 1015.8 |
| 20260504032055 | 5 | 22 | 1.6 | 1.6 | 0.00 | 0.00 | 0.00 | 70 | 1015.8 |
| 20260504031555 | 6 | 22 | 1.6 | 3.2 | 0.00 | 0.00 | 0.00 | 66 | 1015.8 |
| 20260504031055 | 6 | 22 | 1.6 | 3.2 | 0.00 | 0.00 | 0.00 | 65 | 1015.7 |
| 20260504030555 | 6 | 172 | 1.6 | 1.6 | 0.00 | 0.00 | 0.00 | 65 | 1015.7 |
| 20260504030055 | 6 | 172 | 0.0 | 3.2 | 0.00 | 0.00 | 0.00 | 67 | 1015.8 |
| 20260504025555 | 6 | 172 | 0.0 | 3.2 | 0.00 | 0.00 | 0.00 | 68 | 1015.7 |
| 20260504025057 | 6 | 172 | 0.0 | 0.0 | 0.00 | 0.00 | 0.00 | 68 | 1015.7 |
| 20260504024555 | 6 | 172 | 0.0 | 0.0 | 0.00 | 0.00 | 0.00 | 68 | 1015.7 |
| 20260504024055 | 6 | 172 | 0.0 | 0.0 | 0.00 | 0.00 | 0.00 | 68 | 1015.6 |
| 20260504023555 | 6 | 172 | 0.0 | 0.0 | 0.00 | 0.00 | 0.00 | 69 | 1015.7 |
| 20260504023055 | 6 | 172 | 0.0 | 0.0 | 0.00 | 0.00 | 0.00 | 70 | 1015.7 |
| 20260504022555 | 6 | 172 | 0.0 | 0.0 | 0.00 | 0.00 | 0.00 | 69 | 1015.6 |
| 20260504022055 | 6 | 172 | 0.0 | 0.0 | 0.00 | 0.00 | 0.00 | 69 | 1015.5 |
| 20260504021555 | 6 | 172 | 0.0 | 0.0 | 0.00 | 0.00 | 0.00 | 68 | 1015.6 |
| 20260504021057 | 6 | 172 | 0.0 | 0.0 | 0.00 | 0.00 | 0.00 | 67 | 1015.6 |
| 20260504020555 | 6 | 172 | 0.0 | 0.0 | 0.00 | 0.00 | 0.00 | 68 | 1015.6 |
| 20260504020055 | 6 | 172 | 0.0 | 0.0 | 0.00 | 0.00 | 0.00 | 67 | 1015.5 |
| 20260504015555 | 6 | 172 | 0.0 | 0.0 | 0.00 | 0.00 | 0.00 | 69 | 1015.4 |
| 20260504015055 | 6 | 172 | 0.0 | 0.0 | 0.00 | 0.00 | 0.00 | 68 | 1015.4 |
| 20260504014555 | 6 | 172 | 0.0 | 0.0 | 0.00 | 0.00 | 0.00 | 69 | 1015.4 |
| 20260504014055 | 6 | 172 | 0.0 | 3.2 | 0.00 | 0.00 | 0.00 | 67 | 1015.3 |
| 20260504013555 | 6 | 172 | 1.6 | 0.0 | 0.00 | 0.00 | 0.00 | 65 | 1015.4 |
| 20260504013057 | 6 | 172 | 1.6 | 8.0 | 0.00 | 0.00 | 0.00 | 66 | 1015.3 |
| 20260504012555 | 6 | 173 | 0.0 | 8.0 | 0.00 | 0.00 | 0.00 | 65 | 1015.2 |
| 20260504012055 | 7 | 5 | 0.0 | 0.0 | 0.00 | 0.00 | 0.00 | 62 | 1015.2 |
| 20260504011555 | 7 | 5 | 0.0 | 0.0 | 0.00 | 0.00 | 0.00 | 63 | 1015.0 |
| 20260504011055 | 7 | 5 | 0.0 | 0.0 | 0.00 | 0.00 | 0.00 | 62 | 1014.9 |
| 20260504010555 | 7 | 5 | 0.0 | 0.0 | 0.00 | 0.00 | 0.00 | 63 | 1014.9 |
| 20260504010055 | 7 | 5 | 0.0 | 0.0 | 0.00 | 0.00 | 0.00 | 61 | 1014.8 |
| 20260504005555 | 8 | 5 | 0.0 | 0.0 | 0.00 | 0.00 | 0.00 | 60 | 1014.8 |
| 20260504005057 | 8 | 5 | 0.0 | 0.0 | 0.00 | 0.00 | 0.00 | 60 | 1014.9 |
| 20260504004555 | 8 | 5 | 0.0 | 0.0 | 0.00 | 0.00 | 0.00 | 61 | 1014.7 |
| 20260504004055 | 8 | 5 | 0.0 | 0.0 | 0.00 | 0.00 | 0.00 | 62 | 1014.7 |
| 20260504003556 | 8 | 5 | 0.0 | 0.0 | 0.00 | 0.00 | 0.00 | 60 | 1014.7 |
| 20260504003055 | 8 | 5 | 0.0 | 1.6 | 0.00 | 0.00 | 0.00 | 58 | 1014.6 |
| 20260504002555 | 9 | 5 | 0.0 | 3.2 | 0.00 | 0.00 | 0.00 | 54 | 1014.5 |
| 20260504002055 | 10 | 5 | 0.0 | 3.2 | 0.00 | 0.00 | 0.00 | 54 | 1014.6 |
| 20260504001555 | 10 | 5 | 0.0 | 3.2 | 0.00 | 0.00 | 0.00 | 54 | 1014.5 |
| 20260504001057 | 10 | 5 | 0.0 | 0.0 | 0.00 | 0.00 | 0.00 | 53 | 1014.5 |
| 20260504000555 | 10 | 5 | 0.0 | 0.0 | 0.00 | 0.00 | 0.00 | 52 | 1014.6 |
| 20260504000055 | 11 | 5 | 0.0 | 1.6 | 0.00 | 0.00 | 0.00 | 48 | 1014.5 |
| 20260503235555 | 11 | 5 | 0.0 | 3.2 | 0.00 | 0.00 | 0.00 | 46 | 1014.5 |
| 20260503235055 | 12 | 5 | 1.6 | 3.2 | 0.00 | 0.00 | 0.00 | 43 | 1014.5 |
| 20260503234555 | 12 | 5 | 0.0 | 4.8 | 0.00 | 0.00 | 0.00 | 40 | 1014.5 |
| 20260503234055 | 13 | 304 | 0.0 | 3.2 | 0.00 | 0.00 | 0.00 | 40 | 1014.4 |
| 20260503233555 | 13 | 263 | 0.0 | 0.0 | 0.00 | 0.00 | 0.00 | 40 | 1014.3 |
| 20260503233057 | 13 | 263 | 0.0 | 0.0 | 0.00 | 0.00 | 0.00 | 35 | 1014.4 |
| 20260503232556 | 14 | 263 | 0.0 | 3.2 | 0.00 | 0.00 | 0.00 | 40 | 1014.4 |
| 20260503232055 | 14 | 263 | 0.0 | 3.2 | 0.00 | 0.00 | 0.00 | 37 | 1014.4 |
| 20260503231556 | 15 | 263 | 1.6 | 3.2 | 0.00 | 0.00 | 0.00 | 33 | 1014.3 |
| 20260503231055 | 15 | 261 | 1.6 | 6.4 | 0.00 | 0.00 | 0.00 | 34 | 1014.2 |
| 20260503230555 | 15 | 269 | 1.6 | 6.4 | 0.00 | 0.00 | 0.00 | 34 | 1014.2 |
| 20260503230055 | 15 | 242 | 1.6 | 6.4 | 0.00 | 0.00 | 0.00 | 33 | 1014.3 |
| 20260503225556 | 15 | 275 | 1.6 | 6.4 | 0.00 | 0.00 | 0.00 | 33 | 1014.2 |
| 20260503225056 | 15 | 315 | 1.6 | 3.2 | 0.00 | 0.00 | 0.00 | 32 | 1014.2 |
| 20260503224555 | 16 | 250 | 3.2 | 6.4 | 0.00 | 0.00 | 0.00 | 29 | 1014.1 |
| 20260503224056 | 16 | 291 | 3.2 | 9.7 | 0.00 | 0.00 | 0.00 | 30 | 1014.2 |
| 20260503223556 | 16 | 269 | 1.6 | 6.4 | 0.00 | 0.00 | 0.00 | 30 | 1014.3 |
| 20260503223056 | 17 | 329 | 3.2 | 6.4 | 0.00 | 0.00 | 0.00 | 30 | 1014.3 |
| 20260503222556 | 16 | 279 | 3.2 | 9.7 | 0.00 | 0.00 | 0.00 | 32 | 1014.4 |
| 20260503222056 | 16 | 249 | 4.8 | 16.1 | 0.00 | 0.00 | 0.00 | 29 | 1014.2 |
| 20260503221556 | 16 | 329 | 3.2 | 12.9 | 0.00 | 0.00 | 0.00 | 31 | 1014.4 |
| 20260503221056 | 17 | 214 | 1.6 | 11.3 | 0.00 | 0.00 | 0.00 | 28 | 1014.3 |
| 20260503220556 | 17 | 177 | 3.2 | 4.8 | 0.00 | 0.00 | 0.00 | 30 | 1014.3 |
| 20260503220056 | 17 | 312 | 3.2 | 11.3 | 0.00 | 0.00 | 0.00 | 31 | 1014.4 |
| 20260503215556 | 17 | 213 | 3.2 | 11.3 | 0.00 | 0.00 | 0.00 | 31 | 1014.4 |
| 20260503215056 | 16 | 263 | 3.2 | 8.0 | 0.00 | 0.00 | 0.00 | 30 | 1014.4 |
| 20260503214556 | 17 | 228 | 3.2 | 11.3 | 0.00 | 0.00 | 0.00 | 30 | 1014.5 |
| 20260503214056 | 17 | 254 | 3.2 | 8.0 | 0.00 | 0.00 | 0.00 | 34 | 1014.5 |
| 20260503213556 | 17 | 265 | 4.8 | 11.3 | 0.00 | 0.00 | 0.00 | 28 | 1014.4 |
| 20260503213056 | 16 | 214 | 8.0 | 16.1 | 0.00 | 0.00 | 0.00 | 27 | 1014.5 |
| 20260503212556 | 16 | 331 | 6.4 | 17.7 | 0.00 | 0.00 | 0.00 | 29 | 1014.6 |
| 20260503212056 | 17 | 292 | 4.8 | 12.9 | 0.00 | 0.00 | 0.00 | 28 | 1014.6 |
| 20260503211556 | 17 | 310 | 4.8 | 17.7 | 0.00 | 0.00 | 0.00 | 29 | 1014.7 |
| 20260503211056 | 17 | 320 | 4.8 | 14.5 | 0.00 | 0.00 | 0.00 | 28 | 1014.7 |
| 20260503210556 | 16 | 315 | 6.4 | 12.9 | 0.00 | 0.00 | 0.00 | 35 | 1014.8 |
| 20260503210056 | 16 | 184 | 6.4 | 17.7 | 0.00 | 0.00 | 0.00 | 29 | 1014.6 |
| 20260503205556 | 17 | 319 | 4.8 | 17.7 | 0.00 | 0.00 | 0.00 | 31 | 1014.7 |
| 20260503205056 | 16 | 219 | 4.8 | 12.9 | 0.00 | 0.00 | 0.00 | 29 | 1014.7 |
| 20260503204556 | 17 | 254 | 3.2 | 11.3 | 0.00 | 0.00 | 0.00 | 30 | 1014.7 |
| 20260503204056 | 17 | 269 | 4.8 | 11.3 | 0.00 | 0.00 | 0.00 | 30 | 1014.8 |
| 20260503203556 | 17 | 240 | 6.4 | 16.1 | 0.00 | 0.00 | 0.00 | 31 | 1014.8 |
| 20260503203056 | 16 | 325 | 8.0 | 17.7 | 0.00 | 0.00 | 0.00 | 28 | 1014.9 |
| 20260503202556 | 16 | 257 | 8.0 | 20.9 | 0.00 | 0.00 | 0.00 | 30 | 1014.9 |
| 20260503202056 | 16 | 284 | 9.7 | 19.3 | 0.00 | 0.00 | 0.00 | 29 | 1015.0 |
| 20260503201556 | 16 | 325 | 6.4 | 25.7 | 0.00 | 0.00 | 0.00 | 31 | 1015.0 |
| 20260503201056 | 17 | 260 | 3.2 | 11.3 | 0.00 | 0.00 | 0.00 | 30 | 1015.0 |
| 20260503200556 | 16 | 252 | 6.4 | 8.0 | 0.00 | 0.00 | 0.00 | 31 | 1015.0 |
| 20260503200056 | 16 | 351 | 8.0 | 20.9 | 0.00 | 0.00 | 0.00 | 31 | 1015.2 |
| 20260503195556 | 17 | 271 | 6.4 | 16.1 | 0.00 | 0.00 | 0.00 | 31 | 1015.2 |
| 20260503195056 | 16 | 251 | 4.8 | 16.1 | 0.00 | 0.00 | 0.00 | 31 | 1015.2 |
| 20260503194556 | 16 | 273 | 3.2 | 8.0 | 0.00 | 0.00 | 0.00 | 32 | 1015.3 |
| 20260503194056 | 16 | 200 | 4.8 | 14.5 | 0.00 | 0.00 | 0.00 | 34 | 1015.3 |
| 20260503193556 | 16 | 272 | 6.4 | 14.5 | 0.00 | 0.00 | 0.00 | 35 | 1015.5 |
| 20260503193056 | 16 | 211 | 6.4 | 14.5 | 0.00 | 0.00 | 0.00 | 34 | 1015.7 |
| 20260503192556 | 16 | 321 | 8.0 | 12.9 | 0.00 | 0.00 | 0.00 | 35 | 1015.6 |
| 20260503192056 | 16 | 327 | 9.7 | 20.9 | 0.00 | 0.00 | 0.00 | 33 | 1015.7 |
| 20260503191556 | 15 | 270 | 8.0 | 19.3 | 0.00 | 0.00 | 0.00 | 34 | 1015.8 |
| 20260503191056 | 16 | 254 | 6.4 | 19.3 | 0.00 | 0.00 | 0.00 | 33 | 1015.9 |
| 20260503190556 | 16 | 270 | 8.0 | 12.9 | 0.00 | 0.00 | 0.00 | 34 | 1015.9 |
| 20260503190056 | 16 | 322 | 8.0 | 22.5 | 0.00 | 0.00 | 0.00 | 32 | 1016.0 |
| 20260503185556 | 16 | 349 | 3.2 | 16.1 | 0.00 | 0.00 | 0.00 | 37 | 1016.0 |
| 20260503185056 | 16 | 198 | 6.4 | 11.3 | 0.00 | 0.00 | 0.00 | 33 | 1016.1 |
| 20260503184556 | 15 | 326 | 8.0 | 20.9 | 0.00 | 0.00 | 0.00 | 35 | 1016.3 |
| 20260503184056 | 16 | 340 | 8.0 | 22.5 | 0.00 | 0.00 | 0.00 | 34 | 1016.2 |
| 20260503183556 | 15 | 309 | 8.0 | 20.9 | 0.00 | 0.00 | 0.00 | 37 | 1016.2 |
| 20260503183056 | 15 | 274 | 8.0 | 24.1 | 0.00 | 0.00 | 0.00 | 34 | 1016.3 |
| 20260503182556 | 15 | 277 | 4.8 | 16.1 | 0.00 | 0.00 | 0.00 | 35 | 1016.2 |
| 20260503182056 | 15 | 297 | 4.8 | 12.9 | 0.00 | 0.00 | 0.00 | 38 | 1016.3 |
| 20260503181556 | 15 | 238 | 6.4 | 16.1 | 0.00 | 0.00 | 0.00 | 33 | 1016.3 |
| 20260503181056 | 15 | 303 | 8.0 | 17.7 | 0.00 | 0.00 | 0.00 | 39 | 1016.3 |
| 20260503180556 | 15 | 330 | 6.4 | 19.3 | 0.00 | 0.00 | 0.00 | 37 | 1016.5 |
| 20260503180056 | 16 | 321 | 3.2 | 14.5 | 0.00 | 0.00 | 0.00 | 40 | 1016.5 |
| 20260503175556 | 14 | 209 | 4.8 | 11.3 | 0.00 | 0.00 | 0.00 | 34 | 1016.5 |
| 20260503175056 | 15 | 260 | 6.4 | 14.5 | 0.00 | 0.00 | 0.00 | 34 | 1016.6 |
| 20260503174556 | 14 | 9 | 6.4 | 16.1 | 0.00 | 0.00 | 0.00 | 36 | 1016.5 |
| 20260503174056 | 15 | 294 | 8.0 | 11.3 | 0.00 | 0.00 | 0.00 | 37 | 1016.7 |
| 20260503173556 | 15 | 331 | 8.0 | 20.9 | 0.00 | 0.00 | 0.00 | 38 | 1016.7 |
| 20260503173056 | 15 | 174 | 8.0 | 17.7 | 0.00 | 0.00 | 0.00 | 37 | 1016.7 |
| 20260503172556 | 13 | 271 | 11.3 | 16.1 | 0.00 | 0.00 | 0.00 | 38 | 1016.7 |
| 20260503172056 | 13 | 341 | 8.0 | 19.3 | 0.00 | 0.00 | 0.00 | 37 | 1016.8 |
| 20260503171556 | 14 | 355 | 4.8 | 19.3 | 0.00 | 0.00 | 0.00 | 39 | 1016.9 |
| 20260503171056 | 13 | 300 | 6.4 | 12.9 | 0.00 | 0.00 | 0.00 | 39 | 1017.0 |
| 20260503170556 | 13 | 265 | 6.4 | 19.3 | 0.00 | 0.00 | 0.00 | 36 | 1017.0 |
| 20260503150556 | 11 | 289 | 11.3 | 17.7 | 0.00 | 0.00 | 0.00 | 44 | 1017.8 |